Regional Weather Roundup
Issued by NWS

Home | Current Version | Previous Version | Graphics & Text | Print | Product List | Glossary On
Versions: 1 2 3 4 5 6 7 8 9 10 11 12 13 14 15 16 17 18 19 20 21 22 23 24 25 26 27 28 29 30 31 32 33 34 35 36 37 38 39 40 41 42 43 44 45 46 47 48 49 50
000
ASUS43 KMKX 192100
RWRWI

WISCONSIN REGIONAL WEATHER ROUNDUP
NATIONAL WEATHER SERVICE MILWAUKEE/SULLIVAN WI
400 PM CDT SAT APR 19 2014

NOTE: "FAIR" INDICATES FEW OR NO CLOUDS BELOW 12,000 FEET WITH NO
SIGNIFICANT WEATHER AND/OR OBSTRUCTIONS TO VISIBILITY.

WIZ001-002-006>008-014>016-023>028-192200-
NORTHWEST WISCONSIN

CITY           SKY/WX    TMP DP  RH WIND       PRES   REMARKS
SUPERIOR ARPT  CLOUDY    34  32  90 NE6       30.04F WCI  29
ASHLAND        LGT RAIN  41  40  96 S3        30.05R FOG
HAYWARD        LGT RAIN  45  39  79 S3        30.05F
SIREN          CLOUDY    47  39  76 SE3       30.03S
RICE LAKE      CLOUDY    59  34  40 S10       30.06S
LADYSMITH      PTSUNNY   59  35  40 S17G25    30.07F
EAU CLAIRE     NOT AVBL
MENOMONIE      CLOUDY    63  35  35 S20G28    30.04F
NEW RICHMOND   LGT RAIN  58  40  51 S10       30.04R
OSCEOLA        LGT RAIN  57  44  61 SE7       30.05S
$$

WIZ003>005-009-010-017-018-192200-
NORTH CENTRAL WISCONSIN

CITY           SKY/WX    TMP DP  RH WIND       PRES   REMARKS
WOODRUFF       MOSUNNY   55  30  38 S17G28    30.10F
RHINELANDER    SUNNY     51  28  41 S13G24    30.13F
EAGLE RIVER    MOSUNNY   53  24  32 S17G24    30.12F
LAND O LAKES   MOSUNNY   54  25  32 S16G29    30.12F
PHILLIPS       CLOUDY    55  35  45 S15G24    30.08F
TOMAHAWK       SUNNY     54  31  40 S8G18     30.13F
MEDFORD        SUNNY     57  37  46 S15G21    30.12F
MERRILL        SUNNY     57  32  39 CALM      30.15F
$$

WIZ029-030-035-036-043>047-192200-
CENTRAL WISCONSIN

CITY           SKY/WX    TMP DP  RH WIND       PRES   REMARKS
WAUSAU         SUNNY     59  32  36 SE15G24   30.14F
MOSINEE        SUNNY     59  34  38 S15G24    30.17F
MARSHFIELD     SUNNY     63  38  39 S15G25    30.13F
STEVENS POINT  SUNNY     60  33  36 SE20      30.18F
WAUPACA        SUNNY     61  34  36 SE12      30.21F
WAUTOMA        NOT AVBL
WISC RAPIDS    SUNNY     66  33  29 S14G21    30.17F
CAMP DOUGLAS   MOSUNNY   68  37  32 S12G21    30.15F
$$

WIZ011>013-019>022-031-037>040-048>050-192200-
NORTHEAST WISCONSIN

CITY           SKY/WX    TMP DP  RH WIND       PRES   REMARKS
ANTIGO         SUNNY     52  35  52 S18       30.19F
STURGEON BAY   MOSUNNY   46  28  49 S13G21    30.29F
GREEN BAY      MOSUNNY   53  37  54 S12       30.26F
MANITOWOC      NOT AVBL
APPLETON       PTSUNNY   54  32  43 SE15G21   30.25F
CLINTONVILLE   MOSUNNY   55  32  41 S12G20    30.24F
OSHKOSH        MOSUNNY   59  36  42 S14       30.23F
$$

WIZ032>034-041-042-053>061-192200-
SOUTHWEST WISCONSIN

CITY           SKY/WX    TMP DP  RH WIND       PRES   REMARKS
LA CROSSE      SUNNY     68  35  29 S16G26    30.10F
SPARTA         SUNNY     68  33  27 S14G23    30.14F
VIROQUA        FAIR      66  37  34 S20G25    30.14F
BOSCOBEL       MOSUNNY   71  35  26 S10G25    30.14F
PRAIRIE DU CHI MOSUNNY   69  33  26 SE13G21   30.13F
PLATTEVILLE    FAIR      67  35  31 SE23      30.18F
$$

WIZ056-057-062-063-064-067-068-192200-
SOUTH CENTRAL WISCONSIN

CITY           SKY/WX    TMP DP  RH WIND       PRES   REMARKS
BARABOO/DELLS  PTSUNNY   64  33  31 S15G24    30.17F
LONE ROCK      NOT AVBL
WATERTOWN      MOSUNNY   61  36  38 SE13G20   30.24F
MADISON        PTSUNNY   65  33  30 S20       30.20F
MIDDLETON      FAIR      67  29  24 S17G26    30.20F
MONROE         MOSUNNY   67  35  30 S17       30.20F
JANESVILLE     SUNNY     70  30  23 S13       30.23F
$$

WIZ051-052-058>065-066-070>072-192200-
SOUTHEAST WISCONSIN

CITY           SKY/WX    TMP DP  RH WIND       PRES   REMARKS
MILWAUKEE      PTSUNNY   51  36  56 SE9       30.30F
WAUKESHA       MOSUNNY   55  32  41 SE17      30.27F
MILWAUKEE/TIMM SUNNY     54  32  43 SE9       30.29F
RACINE         MOSUNNY   49  35  58 SE8       30.31F
BURLINGTON     MOSUNNY   60  31  33 SW14      30.27F
KENOSHA        SUNNY     53  37  54 E9        30.29F
FOND DU LAC    MOSUNNY   58  36  43 S17G26    30.23F
SHEBOYGAN      SUNNY     50  36  58 S13G22    30.29F
WEST BEND      MOSUNNY   54  30  40 S12G17    30.27F
JUNEAU         MOSUNNY   59  28  31 SE14G22   30.25F
$$

LSZ147-162-192200-
LAKE SUPERIOR

STATION/POSITION TIME  TEMP    WIND        PRES    WAVE
                       AIR SEA DIR/SP/G            HT/PER
                 (UTC) (F)     (DEG/KT/KT) (MB)    (FT/S)
DEVILS ISLAND    2000   34      80/  8/  9 1018.5F
PORT WING        2000   36     100/  2/  4 1017.3F
SAXON HARBOR     2000          220/  9/ 15 1016.9R
$$

LMZ867-665-643>646-192200-
LAKE MICHIGAN

STATION/POSITION TIME  TEMP    WIND        PRES    WAVE
                       AIR SEA DIR/SP/G            HT/PER
                 (UTC) (F)     (DEG/KT/KT) (MB)    (FT/S)
NORTHPORT PIER   2000   35     140/  6/  6 1027.1F
SISTER BAY       2023   51     130/  9/ 14   N/A
KEWAUNEE LAKESHO 2000   37     160/  6/  9 1027.1F
SHEBOYGAN LAKESH 2000   39     170/ 13/ 14 1027.4F
PORT WASHINGTON  2000   44     190/  6/  9 1027.4
MILWAUKEE LAKESH 2000   39     100/  5/  6   N/A
KENOSHA   LAKESH 2000   44      90/  3/  4   N/A
$$

TC  - TEMPERATURE IN CELSIUS
VSB - VISIBILITY IN STATUTE MILES
WCI - WIND CHILL INDEX
HX  - HEAT INDEX




USA.gov is the U.S. government's official web portal to all federal, state and local government web resources and services.